Simultaneous Nadir Overpasses (SNOs) Predictions

Prediction of SNOs between METOP-A and TERRA Satellite Orbit:

Table of predicted SNOs for the next 14.0 days since TLE Epoch: 5/16/2020
Index Date (METOP-A) Time (METOP-A) Lat,Lon (METOP-A) SZA (METOP-A ) Date (TERRA) Time (TERRA) Lat,Lon (TERRA) SZA (TERRA ) Distance(km) Time Diff (sec)
1 05/18/2020 08:24:53 -81.42, -76.68 115.03 05/18/2020 08:25:43 -81.42, -76.88 115.03 3.35 50
2 05/18/2020 09:15:33 81.41, 90.91 65.00 05/18/2020 09:15:09 81.42, 90.91 64.99 1.17 24
3 05/21/2020 03:59:15 -81.42, -10.25 115.61 05/21/2020 03:59:58 -81.42, -10.40 115.61 2.53 43
4 05/21/2020 04:49:55 81.41, 157.32 64.41 05/21/2020 04:49:24 81.42, 157.37 64.41 1.58 31
5 05/23/2020 23:33:37 -81.41, 56.18 116.16 05/23/2020 23:34:13 -81.42, 56.07 116.15 1.81 36
6 05/24/2020 00:24:17 81.41,-136.27 63.87 05/24/2020 00:23:39 81.42,-136.19 63.86 2.07 38
7 05/26/2020 19:07:58 -81.41, 122.59 116.65 05/26/2020 19:08:27 -81.42, 122.53 116.64 1.23 29
8 05/26/2020 19:58:39 81.42, -70.27 63.32 05/26/2020 19:57:54 81.40, -70.15 63.31 2.54 45
9 05/29/2020 14:42:20 -81.41,-171.00 117.11 05/29/2020 14:42:42 -81.42,-171.02 117.09 0.95 22




NCC Satellite Simultaneous Nadir Overpasses (SNOs) Prediction Service
